Weather in Mohyliv

Ukraine / Dnipropetrovsk Region     48°51′49″N   34°28′43″E
temp.,
°C
wind,
m/s
gust,
m/s
humid.,
%
clouds,
%
prec.,
mm/h
press.,
hPa
HPBL,
m
16 june, wed
wed1600:00+18ese118477 1.6 100912
03:00+18e118199 1.6 100912
06:00+17e2286100 0.1 100951
09:00+19ese2484100 0.5 1010259
12:00+23e4563100 1.8 10111100
15:00+25ene235353 2.3 10101663
18:00+25ene22533 0.0 10111195
21:00+18wsw22810 0.2 101221
17 june, thu
thu1700:00+17nne2284100 0.0 101325
03:00+17nne3787100 0.0 1013125
06:00+18nne31090100 0.0 1013285
09:00+23ene7117681 0.9 1014658
12:00+25ene7969100 3.2 10151304
15:00+22ese5883100 6.0 1015504
18:00+19e289893 9.8 1015324
21:00+19nne4129733 11.6 1016335
18 june, fri
fri1800:00+20ne7149366 2.0 1016475
03:00+19ne7159394 5.2 1016615
06:00+18ene81492100 0.5 1016658
09:00+20ene8128797 0.5 1018751
12:00+22e8107663 0.1 10181095
15:00+24e8107049 0.3 10191335
18:00+23e6107819 0.3 10191025
21:00+19e4109057 0.4 1020310
19 june, sat
sat1900:00+18e4109385 0.1 1021304
03:00+17ene499479 0.1 1020260
06:00+17ene410875 0.0 1021375
09:00+21e69730 0.0 1020686
12:00+24e710620 0.0 10191232
15:00+25e896151 0.0 10191427
18:00+24e6117178 0.0 1018619
21:00+22e6147318 0.0 1019515
20 june, sun
sun2000:00+19ene51383100 0.0 1018370
03:00+18ene5137693 0.0 1018350
06:00+16ene5137826 0.0 1018331
09:00+21e71262100 0.0 1018574
12:00+25e81154100 0.0 1017927
15:00+26e7115790 0.2 10151233
18:00+26e711647 0.0 10141215
21:00+22ene512762 0.0 1014359